When you browse on this site, cookies collect data to enhance your experience and personalize the content and advertising you see.
Visit our Privacy Policy to learn more. By continuing to use the site, you agree to this use of cookies and data.
  • In Portugal
  • List of Countries
  • For 7 days
  • Water Temperature
  • Weather Map
  • Weather Widgets
  • user-avatar
    Login

    Hourly Weather Perhlyay

    Today, 21 August, Wednesday

    Time Temperature Precipitation Wind Pressure Humidity
    00:00 +17°C° 0 mm 2 mps 748 mmHg 92%
    01:00 +17°C° 0 mm 2 mps 748 mmHg 92%
    02:00 +16°C° 0 mm 2 mps 748 mmHg 92%
    03:00 +16°C° 0 mm 2 mps 748 mmHg 93%
    04:00 +16°C° 0 mm 2 mps 748 mmHg 93%
    05:00 +16°C° 0 mm 2 mps 748 mmHg 93%
    06:00 +17°C° 0 mm 2 mps 748 mmHg 93%
    07:00 +18°C° 0 mm 2 mps 748 mmHg 87%
    08:00 +20°C° 0 mm 2 mps 749 mmHg 81%
    09:00 +21°C° 0 mm 2 mps 749 mmHg 75%
    10:00 +23°C° 0 mm 2 mps 749 mmHg 71%
    11:00 +24°C° 0 mm 2 mps 749 mmHg 67%
    12:00 +25°C° 0 mm 3 mps 749 mmHg 64%
    13:00 +26°C° 0 mm 3 mps 749 mmHg 62%
    14:00 +26°C° 0 mm 3 mps 748 mmHg 61%
    15:00 +26°C° 0 mm 3 mps 748 mmHg 60%
    16:00 +26°C° 0 mm 2 mps 748 mmHg 65%
    17:00 +25°C° 0 mm 2 mps 748 mmHg 70%
    18:00 +24°C° 0 mm 2 mps 748 mmHg 75%
    19:00 +23°C° 0 mm 2 mps 748 mmHg 78%
    20:00 +21°C° 0 mm 2 mps 748 mmHg 81%
    21:00 +20°C° 0 mm 1 mps 748 mmHg 85%
    22:00 +20°C° 0 mm 1 mps 748 mmHg 86%
    23:00 +20°C° 0 mm 1 mps 748 mmHg 87%

    Tomorrow, 22 August, Thursday

    Time Temperature Precipitation Wind Pressure Humidity
    00:00 +17°C° 0 mm 0 mps 748 mmHg 88%
    01:00 +17°C° 0 mm 0 mps 748 mmHg 89%
    02:00 +17°C° 0 mm 0 mps 748 mmHg 89%
    03:00 +16°C° 0 mm 0 mps 748 mmHg 90%
    04:00 +17°C° 0 mm 0 mps 748 mmHg 90%
    05:00 +17°C° 0 mm 0 mps 747 mmHg 90%
    06:00 +17°C° 0 mm 0 mps 747 mmHg 90%
    07:00 +20°C° 0 mm 1 mps 747 mmHg 84%
    08:00 +22°C° 0 mm 1 mps 747 mmHg 78%
    09:00 +24°C° 0 mm 1 mps 748 mmHg 72%
    10:00 +24°C° 0 mm 1 mps 747 mmHg 68%
    11:00 +25°C° 0 mm 1 mps 747 mmHg 64%
    12:00 +26°C° 0 mm 1 mps 747 mmHg 59%
    13:00 +27°C° 0 mm 1 mps 747 mmHg 58%
    14:00 +27°C° 0 mm 1 mps 747 mmHg 56%
    15:00 +27°C° 0 mm 1 mps 746 mmHg 55%
    16:00 +27°C° 0 mm 1 mps 746 mmHg 59%
    17:00 +26°C° 0 mm 1 mps 746 mmHg 63%
    18:00 +26°C° 0 mm 1 mps 746 mmHg 67%
    19:00 +24°C° 0 mm 1 mps 746 mmHg 70%
    20:00 +23°C° 0 mm 1 mps 746 mmHg 73%
    21:00 +21°C° 0 mm 1 mps 746 mmHg 76%
    22:00 +21°C° 0 mm 1 mps 746 mmHg 77%
    23:00 +21°C° 0 mm 1 mps 746 mmHg 79%

    Day after tomorrow, 23 August, Friday

    Time Temperature Precipitation Wind Pressure Humidity
    00:00 +20°C° 0 mm 1 mps 746 mmHg 80%
    01:00 +20°C° 0 mm 1 mps 746 mmHg 83%
    02:00 +19°C° 0 mm 2 mps 747 mmHg 86%
    03:00 +18°C° 0 mm 2 mps 747 mmHg 89%
    04:00 +18°C° 0 mm 3 mps 747 mmHg 89%
    05:00 +18°C° 0 mm 4 mps 747 mmHg 90%
    06:00 +16°C° 0 mm 5 mps 747 mmHg 90%
    07:00 +16°C° 0 mm 5 mps 748 mmHg 88%
    08:00 +18°C° 0 mm 4 mps 748 mmHg 86%
    09:00 +18°C° 0 mm 4 mps 748 mmHg 83%
    10:00 +19°C° 0 mm 4 mps 748 mmHg 78%
    11:00 +20°C° 0 mm 4 mps 748 mmHg 72%
    12:00 +21°C° 0 mm 4 mps 748 mmHg 67%
    13:00 +21°C° 0 mm 4 mps 748 mmHg 64%
    14:00 +22°C° 0 mm 4 mps 748 mmHg 62%
    15:00 +22°C° 0 mm 4 mps 748 mmHg 59%
    16:00 +21°C° 0 mm 4 mps 748 mmHg 63%
    17:00 +20°C° 0 mm 3 mps 749 mmHg 67%
    18:00 +20°C° 0 mm 3 mps 749 mmHg 71%
    19:00 +18°C° 0 mm 3 mps 749 mmHg 73%
    20:00 +17°C° 0 mm 3 mps 749 mmHg 75%
    21:00 +16°C° 0 mm 2 mps 749 mmHg 77%
    22:00 +16°C° 0 mm 2 mps 749 mmHg 78%
    23:00 +15°C° 0 mm 2 mps 749 mmHg 78%

    24 August, Saturday

    Time Temperature Precipitation Wind Pressure Humidity
    00:00 +15°C° 0 mm 2 mps 749 mmHg 79%
    01:00 +14°C° 0 mm 2 mps 749 mmHg 80%
    02:00 +14°C° 0 mm 2 mps 749 mmHg 81%
    03:00 +13°C° 0 mm 2 mps 749 mmHg 83%
    04:00 +13°C° 0 mm 2 mps 749 mmHg 83%
    05:00 +13°C° 0 mm 2 mps 749 mmHg 84%
    06:00 +13°C° 0 mm 2 mps 749 mmHg 85%
    07:00 +15°C° 0 mm 2 mps 750 mmHg 79%
    08:00 +17°C° 0 mm 2 mps 750 mmHg 74%
    09:00 +19°C° 0 mm 2 mps 750 mmHg 68%
    10:00 +20°C° 0 mm 2 mps 750 mmHg 64%
    11:00 +21°C° 0 mm 2 mps 750 mmHg 59%
    12:00 +23°C° 0 mm 2 mps 750 mmHg 54%
    13:00 +23°C° 0 mm 2 mps 750 mmHg 53%
    14:00 +23°C° 0 mm 2 mps 749 mmHg 52%
    15:00 +24°C° 0 mm 2 mps 749 mmHg 50%
    16:00 +23°C° 0 mm 2 mps 749 mmHg 55%
    17:00 +21°C° 0 mm 2 mps 749 mmHg 60%
    18:00 +21°C° 0 mm 1 mps 749 mmHg 65%
    19:00 +20°C° 0 mm 1 mps 749 mmHg 68%
    20:00 +16°C° 0 mm 0 mps 749 mmHg 71%
    21:00 +15°C° 0 mm 0 mps 749 mmHg 73%
    22:00 +15°C° 0 mm 0 mps 748 mmHg 74%
    23:00 +15°C° 0 mm 1 mps 748 mmHg 75%

    25 August, Sunday

    Time Temperature Precipitation Wind Pressure Humidity
    00:00 +15°C° 0 mm 1 mps 748 mmHg 77%
    01:00 +15°C° 0 mm 1 mps 748 mmHg 78%
    02:00 +14°C° 0 mm 2 mps 748 mmHg 79%
    03:00 +14°C° 0 mm 2 mps 748 mmHg 81%
    04:00 +14°C° 0 mm 2 mps 747 mmHg 81%
    05:00 +14°C° 0 mm 2 mps 747 mmHg 82%
    06:00 +14°C° 0 mm 2 mps 747 mmHg 83%
    07:00 +16°C° 0 mm 3 mps 747 mmHg 78%
    08:00 +17°C° 0 mm 3 mps 747 mmHg 73%
    09:00 +19°C° 0 mm 4 mps 747 mmHg 68%
    10:00 +20°C° 0 mm 4 mps 746 mmHg 65%
    11:00 +21°C° 0 mm 4 mps 746 mmHg 61%
    12:00 +22°C° 0 mm 4 mps 746 mmHg 58%
    13:00 +23°C° 0 mm 5 mps 746 mmHg 58%
    14:00 +23°C° 0 mm 5 mps 745 mmHg 57%
    15:00 +23°C° 0 mm 5 mps 745 mmHg 57%
    16:00 +22°C° 0.2 mm 5 mps 745 mmHg 63%
    17:00 +21°C° 0.2 mm 5 mps 745 mmHg 69%
    18:00 +19°C° 0.2 mm 4 mps 744 mmHg 75%
    19:00 +18°C° 0.4 mm 4 mps 745 mmHg 81%
    20:00 +17°C° 0.4 mm 3 mps 745 mmHg 87%
    21:00 +16°C° 0.4 mm 3 mps 745 mmHg 93%
    22:00 +14°C° 0.1 mm 3 mps 745 mmHg 92%
    23:00 +13°C° 0.1 mm 3 mps 746 mmHg 92%

    26 August, Monday

    Time Temperature Precipitation Wind Pressure Humidity
    00:00 +13°C° 0.1 mm 4 mps 746 mmHg 91%
    01:00 +12°C° 0 mm 3 mps 746 mmHg 92%
    02:00 +11°C° 0 mm 3 mps 746 mmHg 94%
    03:00 +11°C° 0 mm 3 mps 747 mmHg 95%
    04:00 +10°C° 0 mm 4 mps 747 mmHg 95%
    05:00 +10°C° 0 mm 4 mps 747 mmHg 96%
    06:00 +10°C° 0 mm 4 mps 748 mmHg 96%
    07:00 +11°C° 0 mm 4 mps 748 mmHg 92%
    08:00 +11°C° 0 mm 4 mps 749 mmHg 87%
    09:00 +12°C° 0 mm 5 mps 749 mmHg 83%
    10:00 +12°C° 0 mm 5 mps 750 mmHg 79%
    11:00 +13°C° 0 mm 5 mps 750 mmHg 76%
    12:00 +13°C° 0 mm 5 mps 750 mmHg 73%
    13:00 +14°C° 0 mm 4 mps 750 mmHg 69%
    14:00 +15°C° 0 mm 4 mps 750 mmHg 66%
    15:00 +17°C° 0 mm 4 mps 750 mmHg 63%
    16:00 +16°C° 0 mm 3 mps 751 mmHg 66%
    17:00 +16°C° 0 mm 2 mps 751 mmHg 70%
    18:00 +15°C° 0 mm 2 mps 751 mmHg 74%
    19:00 +14°C° 0 mm 2 mps 751 mmHg 77%
    20:00 +13°C° 0 mm 2 mps 751 mmHg 81%
    21:00 +10°C° 0 mm 2 mps 751 mmHg 85%
    22:00 +11°C° 0 mm 1 mps 751 mmHg 86%
    23:00 +10°C° 0 mm 1 mps 751 mmHg 88%
    Show more